目前日期文章:201606 (125)

瀏覽方式: 標題列表 簡短摘要
發表時間 文章標題 人氣 留言
2016-06-29 指甲彩-非典型甜美 - 5253@unt 專業藥妝 (0) (0)
2016-06-29 TECO東元-LED摺疊燈+SAMPO聲寶-飛碟燈造型LED檯燈 (0) (0)
2016-06-29 3CE 魅惑持久眼影霜 - 4390@unt 專業保養 (0) (0)
2016-06-29 部落客推薦-好奇寶寶推拉搖轉書- (0) (0)
2016-06-29 unt 專業保養@Etude House 即可拍超合一30秒粉凝霜 - 4969 (0) (0)
2016-06-28 (0) (0)
2016-06-27 (0) (0)
2016-06-24 【liu柳】柳晶凍抗痕(三入48折) (0) (0)
2016-06-24 CONCEPTII香氛概念 封印香蘋 香氛身體沐浴膠236ml (0) (0)
2016-06-24 【Biore】含水防曬亮采裸粧霜 SPF50+(33g) (0) (0)
2016-06-24 Crabtree & Evelyn 瑰珀翠 摩洛哥 活力香皂 150G (0) (0)
2016-06-24 【即期品】Avene雅漾 抗老保濕乳(40ml) (0) (0)
2016-06-23 【Whoo 后】天氣丹清氣活力面膜天后組 (0) (0)
2016-06-23 【LANCOME 蘭蔻】超進化肌因賦活露30ml(加贈 超緊塑5D抗皺激粹10ml) (0) (0)
2016-06-23 Tilley百年特莉 香氛植物皂100gx3入組 (0) (0)
2016-06-23 【寶藝Bonanza】Q10保濕冷敷劑三瓶超值加贈組(Q10保濕冷敷劑250g x3) (0) (0)
2016-06-23 Crabtree & Evelyn 瑰珀翠 炫金愛芙蓉 體霜200G (0) (0)
2016-06-23 【HollyAnn荷莉安】賦活水嫩冰晶面膜(30ml-瓶) (0) (0)
2016-06-23 【Kiehl’s 契爾氏】冰河醣蛋白保濕霜 試用包〈3ML〉10入組 (0) (0)
2016-06-23 【瑞士SFB】3專利拉提精華液30ml4入(贈3ml-9包) (0) (0)
2016-06-23 【Innisfree】韓國美妝-自然發酵大豆彈力面霜(50ml) (0) (0)
2016-06-23 【Arang】極致保濕修護嫩手膜(23gx1對) (0) (0)
2016-06-22 【丹堤】全方位膠原面膜100片+深層淨色角質凝膠 (0) (0)
2016-06-22 【寵愛之名】亮白淨化胺基酸潔膚乳130ml(2入組) (0) (0)
2016-06-22 【即期品】SHISEIDO 資生堂 盼麗風姿抗皺24均衡柔軟水 25ML x 4(保存期限至2017-04) (0) (0)
2016-06-22 【FACE Q絕世美肌】牛奶滋潤足膜1入(M) (0) (0)
2016-06-22 COWSHED 懶懶牛甦醒身體乳 300ml (0) (0)
2016-06-21 【法國黎得芳】法國黎得芳 纖體窈窕曲線緊膚精華 芳少女Style纖纖美腿膜1入 (0) (0)
2016-06-21 H&W英倫薇朵 原野香茅室內香薰噴霧100ml (0) (0)
2016-06-21 【Realwoman】Black Membrane活敷冰河泥(100ml-罐x3) (0) (0)
2016-06-21 Crabtree & Evelyn 瑰珀翠 滋養身體乳液200ml - 水澤香蕀叢花 (0) (0)
2016-06-21 【英國Herbfarmacy草本農莊】★即期品-無香保溼面霜(50g) (0) (0)
2016-06-21 Roger & Gallet 意大利香櫞香水皂禮盒 3入組 (0) (0)
2016-06-21 【Estee Lauder雅詩蘭黛】白金級極緻珍璽甦活凝霜52ml-超越正貨容量組(贈眼霜7ml-2) (0) (0)
2016-06-21 【Avene雅漾】舒護活泉水150ml(3入特惠) (0) (0)
2016-06-21 Locherber 樂凱博 都市舒壓隔離霜 75mL (0) (0)
2016-06-21 【AA】男仕極致淨化控油保濕乳霜 50ml(Aromatherapy Associates) (0) (0)
2016-06-19 【Usimply 舒膚莉】雙B亮采保濕緊膚精華(30mlx2) (0) (0)
2016-06-19 【KANEBO佳麗寶】DEW beaute潤活減擔美肌組(共三款可選) (0) (0)
2016-06-19 【Freeman】洋甘菊哈密瓜晚安熬夜面膜+紅柚毛孔淨化去角質膠(175ml+175ml) (0) (0)
2016-06-19 【德國 草本莊園】蝸牛奇蹟修復精華 三入組(100ml-3) (0) (0)
2016-06-19 【ESTEE LAUDER雅詩蘭黛】超智慧眼霜0.5mlx24 (0) (0)
2016-06-18 【ESTEE LAUDER雅詩蘭黛】特潤雙層超導修護面膜(4片-盒x2入) (0) (0)
2016-06-18 Body Temple 頂級體清寧靜泡澡&按摩油500ml (0) (0)
2016-06-18 【1028】持妝深V保濕面膜or高效鎖水保濕面膜12入(買六片送六片) (0) (0)
2016-06-18 【MEDIHEAL】神奇泡泡深層淨孔面膜(18ml-5片) (0) (0)
2016-06-18 【EJG 伊澤靚】7%杏仁酸植萃精華液(30ml) (0) (0)
2016-06-16 【寶藝Bonanza】專業沙龍 保濕眼霜DY (0) (0)
2016-06-16 【CONI】超淨顏驅黑淨亮角質膠-3+coni beauty 黃金蝸牛全效面膜10入(優惠組合) (0) (0)
2016-06-16 【ESTEE LAUDER雅詩蘭黛】白金級喚能湛白奇蹟霜7mlx5 (0) (0)
1 23
找更多相關文章與討論